Home > Weather > Idar-Oberstein > Past weeks

Flag for Germany Past Weather in Idar-Oberstein, Rhineland-Palatinate, Germany — Yesterday and Last 2 Weeks

Now
46 °F

Light rain. Partly sunny.


Feels Like: 43 °F
Forecast: 44 / 64 °F
Wind: 7 mph from North

Location: Hahn

Current Time: May 24, 2016 at 5:55:22 PM

Latest Report: May 24, 2016 at 5:20 PM


Visibility: N/A

Pressure: 30.01 "Hg

Humidity: 93%

Dew Point: 45 °F

Location of Idar-ObersteinLocation

Past Weather in Idar-Oberstein — Graph

°F

Idar-Oberstein Temperature Yesterday

Maximum temperature yesterday: 54 °F (at 12:20 AM)
Minimum temperature yesterday: 46 °F (at 11:50 PM)
Average temperature yesterday: 50 °F

High & Low Weather Summary for the Past Weeks

 TemperatureHumidityPressure
High70 °F (May 22, 2:20 PM)100% (May 10, 9:50 PM)30.12 "Hg (May 10, 9:50 PM)
Low36 °F (May 15, 3:20 AM)44% (May 17, 12:20 PM)29.50 "Hg (May 12, 5:50 AM)
Average53 °F77%29.88 "Hg
* Reported May 9 4:20 PM — May 24 4:20 PM, Idar-Oberstein, Weather by CustomWeather, © 2016

Note: Actual official high and low records may vary slightly from our data, if they occured in-between our weather recording intervals... More about our weather records

Advertising

Idar-Oberstein Weather History for the Previous 24 Hours

Scroll right to see more
 ConditionsComfort  
Time TempWeatherWind HumidityBarometerVisibility
4:20 PM
Tue, May 24
46 °FLight rain. Partly sunny.9 mph93%30.01 "HgN/A
3:50 PM48 °FLight rain. Partly sunny.7 mph87%30.01 "HgN/A
3:20 PM46 °FLight rain. Partly sunny.9 mph93%30.01 "HgN/A
2:50 PM46 °FLight rain. Broken clouds.8 mph93%30.01 "HgN/A
2:20 PM46 °FLight rain. Partly sunny.9 mph93%30.01 "Hg5 mi
1:50 PM46 °FLight rain. Partly sunny.12 mph93%30.01 "Hg5 mi
12:50 PM46 °FPartly sunny.12 mph93%30.01 "Hg4 mi
12:20 PM46 °FPartly sunny.10 mph93%30.01 "Hg5 mi
11:50 AM46 °FBroken clouds.10 mph93%30.01 "Hg5 mi
11:20 AM46 °FBroken clouds.10 mph93%30.01 "Hg5 mi
10:50 AM46 °FBroken clouds.9 mph93%30.01 "HgN/A
10:20 AM46 °FBroken clouds.9 mph93%29.98 "HgN/A
9:50 AM46 °FPartly sunny.12 mph93%29.98 "HgN/A
9:20 AM46 °FPartly sunny.13 mph93%29.98 "HgN/A
8:50 AM46 °FPartly sunny.12 mph93%29.98 "HgN/A
8:20 AM46 °FPartly sunny.12 mph93%29.98 "HgN/A
7:50 AM46 °FBroken clouds.10 mph100%29.98 "Hg5 mi
7:20 AM46 °FDrizzle. Broken clouds.12 mph93%29.98 "Hg5 mi
6:50 AM46 °FDrizzle. Broken clouds.10 mph93%29.98 "Hg5 mi
6:20 AM46 °FPartly cloudy.12 mph93%29.98 "Hg5 mi
5:50 AM46 °FPassing clouds.10 mph93%29.98 "HgN/A
5:20 AM46 °FPassing clouds.9 mph93%29.98 "HgN/A
4:50 AM46 °FPassing clouds.10 mph93%29.98 "HgN/A
4:20 AM46 °FPassing clouds.9 mph93%29.98 "HgN/A
3:50 AM46 °FPassing clouds.9 mph93%29.98 "HgN/A
2:50 AM46 °FPassing clouds.10 mph93%29.98 "HgN/A
2:20 AM46 °FPassing clouds.13 mph100%29.98 "HgN/A
1:50 AM46 °FPassing clouds.10 mph100%29.98 "HgN/A
1:20 AM46 °FPassing clouds.13 mph100%29.98 "HgN/A
12:50 AM46 °FPassing clouds.12 mph100%29.95 "HgN/A
12:20 AM46 °FPassing clouds.10 mph100%29.98 "HgN/A
11:50 PM
Mon, May 23
46 °FPassing clouds.10 mph100%29.98 "HgN/A
11:20 PM48 °FPassing clouds.12 mph94%29.98 "HgN/A
10:50 PM48 °FPassing clouds.12 mph94%29.98 "HgN/A
10:20 PM48 °FPartly sunny.12 mph94%29.98 "HgN/A
9:50 PM48 °FPartly sunny.9 mph94%29.98 "HgN/A
9:20 PM48 °FLight rain. Partly sunny.8 mph94%29.98 "HgN/A
8:50 PM50 °FPartly sunny.12 mph82%29.95 "HgN/A
8:20 PM50 °FLight rain. Partly sunny.14 mph82%29.95 "HgN/A
7:50 PM50 °FLight rain. Partly sunny.9 mph88%29.92 "HgN/A
7:20 PM50 °FSprinkles. Partly sunny.14 mph88%29.92 "HgN/A
6:50 PM50 °FSprinkles. Partly sunny.10 mph88%29.92 "HgN/A
6:20 PM50 °FSprinkles. Broken clouds.9 mph88%29.92 "HgN/A
5:50 PM50 °FBroken clouds.9 mph88%29.92 "HgN/A
5:20 PM50 °FPartly sunny.9 mph88%29.92 "HgN/A
Weather by CustomWeather, © 2016

See weather overviewHow to use our weather pages